• In Belarus
  • List of Countries
  • For 7 days
  • Water Temperature
  • Weather Map
  • Weather Widgets
  • user-avatar
    Login

    Hourly Weather Aktogay

    Today, 20 September, Friday

    Time Temperature Precipitation Wind Pressure Humidity
    00:00 +18°C° 0 mm 3 mps 665 mmHg 35%
    01:00 +18°C° 0 mm 3 mps 664 mmHg 35%
    02:00 +17°C° 0 mm 3 mps 664 mmHg 36%
    03:00 +17°C° 0 mm 3 mps 664 mmHg 36%
    04:00 +17°C° 0 mm 3 mps 664 mmHg 36%
    05:00 +17°C° 0 mm 3 mps 664 mmHg 37%
    06:00 +19°C° 0 mm 2 mps 665 mmHg 34%
    07:00 +21°C° 0 mm 2 mps 665 mmHg 31%
    08:00 +24°C° 0 mm 2 mps 666 mmHg 29%
    09:00 +25°C° 0 mm 1 mps 666 mmHg 25%
    10:00 +27°C° 0 mm 1 mps 666 mmHg 22%
    11:00 +28°C° 0 mm 1 mps 666 mmHg 19%
    12:00 +29°C° 0 mm 2 mps 666 mmHg 19%
    13:00 +29°C° 0 mm 2 mps 665 mmHg 18%
    14:00 +29°C° 0 mm 3 mps 665 mmHg 18%
    15:00 +28°C° 0 mm 3 mps 665 mmHg 20%
    16:00 +27°C° 0 mm 3 mps 665 mmHg 23%
    17:00 +26°C° 0 mm 3 mps 665 mmHg 25%
    18:00 +25°C° 0 mm 2 mps 665 mmHg 27%
    19:00 +23°C° 0 mm 2 mps 665 mmHg 29%
    20:00 +21°C° 0 mm 1 mps 664 mmHg 32%
    21:00 +20°C° 0 mm 2 mps 664 mmHg 32%
    22:00 +19°C° 0 mm 2 mps 664 mmHg 33%
    23:00 +19°C° 0 mm 2 mps 664 mmHg 33%

    Tomorrow, 21 September, Saturday

    Time Temperature Precipitation Wind Pressure Humidity
    00:00 +18°C° 0 mm 2 mps 663 mmHg 34%
    01:00 +18°C° 0 mm 2 mps 663 mmHg 35%
    02:00 +17°C° 0 mm 2 mps 663 mmHg 35%
    03:00 +17°C° 0 mm 2 mps 663 mmHg 36%
    04:00 +17°C° 0 mm 2 mps 663 mmHg 37%
    05:00 +16°C° 0 mm 2 mps 663 mmHg 38%
    06:00 +18°C° 0 mm 2 mps 663 mmHg 35%
    07:00 +21°C° 0 mm 1 mps 664 mmHg 32%
    08:00 +23°C° 0 mm 1 mps 664 mmHg 29%
    09:00 +25°C° 0 mm 2 mps 664 mmHg 26%
    10:00 +26°C° 0 mm 2 mps 664 mmHg 24%
    11:00 +28°C° 0 mm 2 mps 664 mmHg 21%
    12:00 +28°C° 0 mm 3 mps 664 mmHg 21%
    13:00 +28°C° 0 mm 4 mps 663 mmHg 20%
    14:00 +29°C° 0 mm 5 mps 663 mmHg 20%
    15:00 +28°C° 0 mm 4 mps 663 mmHg 22%
    16:00 +27°C° 0 mm 3 mps 662 mmHg 24%
    17:00 +26°C° 0 mm 2 mps 662 mmHg 26%
    18:00 +25°C° 0 mm 2 mps 662 mmHg 28%
    19:00 +23°C° 0 mm 2 mps 662 mmHg 30%
    20:00 +20°C° 0 mm 2 mps 662 mmHg 32%
    21:00 +20°C° 0 mm 2 mps 662 mmHg 33%
    22:00 +19°C° 0 mm 2 mps 661 mmHg 34%
    23:00 +19°C° 0 mm 2 mps 661 mmHg 34%

    Day after tomorrow, 22 September, Sunday

    Time Temperature Precipitation Wind Pressure Humidity
    00:00 +19°C° 0 mm 2 mps 661 mmHg 35%
    01:00 +18°C° 0 mm 2 mps 661 mmHg 36%
    02:00 +18°C° 0 mm 3 mps 660 mmHg 36%
    03:00 +18°C° 0 mm 3 mps 660 mmHg 37%
    04:00 +17°C° 0 mm 3 mps 660 mmHg 38%
    05:00 +17°C° 0 mm 3 mps 660 mmHg 39%
    06:00 +19°C° 0 mm 3 mps 661 mmHg 36%
    07:00 +21°C° 0 mm 3 mps 661 mmHg 33%
    08:00 +24°C° 0 mm 2 mps 662 mmHg 30%
    09:00 +26°C° 0 mm 2 mps 662 mmHg 26%
    10:00 +28°C° 0 mm 2 mps 662 mmHg 23%
    11:00 +30°C° 0 mm 1 mps 663 mmHg 19%
    12:00 +30°C° 0 mm 2 mps 662 mmHg 18%
    13:00 +31°C° 0 mm 2 mps 662 mmHg 17%
    14:00 +31°C° 0 mm 3 mps 662 mmHg 16%
    15:00 +30°C° 0 mm 3 mps 662 mmHg 19%
    16:00 +29°C° 0 mm 2 mps 662 mmHg 22%
    17:00 +28°C° 0 mm 2 mps 661 mmHg 25%
    18:00 +26°C° 0 mm 2 mps 661 mmHg 26%
    19:00 +24°C° 0 mm 2 mps 661 mmHg 27%
    20:00 +23°C° 0 mm 2 mps 661 mmHg 28%
    21:00 +21°C° 0 mm 2 mps 661 mmHg 27%
    22:00 +21°C° 0 mm 2 mps 661 mmHg 26%
    23:00 +21°C° 0 mm 3 mps 661 mmHg 26%

    23 September, Monday

    Time Temperature Precipitation Wind Pressure Humidity
    00:00 +20°C° 0 mm 3 mps 661 mmHg 26%
    01:00 +20°C° 0 mm 3 mps 661 mmHg 27%
    02:00 +19°C° 0 mm 3 mps 661 mmHg 28%
    03:00 +19°C° 0 mm 3 mps 661 mmHg 28%
    04:00 +19°C° 0 mm 3 mps 662 mmHg 28%
    05:00 +19°C° 0 mm 3 mps 662 mmHg 28%
    06:00 +20°C° 0 mm 3 mps 663 mmHg 28%
    07:00 +22°C° 0 mm 4 mps 664 mmHg 28%
    08:00 +23°C° 0 mm 4 mps 665 mmHg 28%
    09:00 +23°C° 0 mm 4 mps 665 mmHg 31%
    10:00 +23°C° 0 mm 5 mps 665 mmHg 35%
    11:00 +22°C° 0 mm 5 mps 665 mmHg 38%
    12:00 +23°C° 0 mm 4 mps 665 mmHg 38%
    13:00 +23°C° 0 mm 4 mps 665 mmHg 38%
    14:00 +23°C° 0 mm 4 mps 664 mmHg 38%
    15:00 +22°C° 0 mm 3 mps 664 mmHg 40%
    16:00 +21°C° 0 mm 3 mps 664 mmHg 42%
    17:00 +20°C° 0 mm 2 mps 664 mmHg 44%
    18:00 +20°C° 0 mm 2 mps 664 mmHg 47%
    19:00 +19°C° 0 mm 2 mps 664 mmHg 50%
    20:00 +19°C° 0 mm 1 mps 664 mmHg 53%
    21:00 +18°C° 0 mm 1 mps 663 mmHg 54%
    22:00 +18°C° 0 mm 1 mps 663 mmHg 54%
    23:00 +16°C° 0 mm 0 mps 663 mmHg 55%

    24 September, Tuesday

    Time Temperature Precipitation Wind Pressure Humidity
    00:00 +15°C° 0 mm 0 mps 662 mmHg 56%
    01:00 +15°C° 0 mm 0 mps 662 mmHg 58%
    02:00 +14°C° 0 mm 0 mps 662 mmHg 59%
    03:00 +14°C° 0 mm 0 mps 662 mmHg 59%
    04:00 +13°C° 0 mm 0 mps 662 mmHg 59%
    05:00 +13°C° 0 mm 0 mps 662 mmHg 60%
    06:00 +15°C° 0 mm 0 mps 662 mmHg 53%
    07:00 +17°C° 0 mm 0 mps 663 mmHg 47%
    08:00 +19°C° 0 mm 0 mps 663 mmHg 40%
    09:00 +23°C° 0 mm 1 mps 663 mmHg 37%
    10:00 +24°C° 0 mm 2 mps 663 mmHg 35%
    11:00 +25°C° 0 mm 3 mps 663 mmHg 32%
    12:00 +25°C° 0 mm 4 mps 663 mmHg 32%
    13:00 +23°C° 0 mm 5 mps 663 mmHg 32%
    14:00 +23°C° 0 mm 6 mps 663 mmHg 32%
    15:00 +22°C° 0 mm 5 mps 663 mmHg 34%
    16:00 +21°C° 0 mm 4 mps 663 mmHg 36%
    17:00 +20°C° 0 mm 2 mps 663 mmHg 38%
    18:00 +19°C° 0 mm 2 mps 664 mmHg 41%
    19:00 +19°C° 0 mm 1 mps 664 mmHg 45%
    20:00 +16°C° 0 mm 0 mps 664 mmHg 49%
    21:00 +16°C° 0 mm 0 mps 664 mmHg 50%
    22:00 +15°C° 0 mm 0 mps 663 mmHg 52%
    23:00 +15°C° 0 mm 0 mps 663 mmHg 54%

    25 September, Wednesday

    Time Temperature Precipitation Wind Pressure Humidity
    00:00 +15°C° 0 mm 1 mps 663 mmHg 55%
    01:00 +15°C° 0 mm 1 mps 663 mmHg 57%
    02:00 +14°C° 0 mm 1 mps 663 mmHg 59%
    03:00 +14°C° 0 mm 1 mps 663 mmHg 60%
    04:00 +14°C° 0 mm 1 mps 663 mmHg 61%
    05:00 +14°C° 0 mm 1 mps 663 mmHg 61%
    06:00 +15°C° 0 mm 1 mps 664 mmHg 57%
    07:00 +18°C° 0 mm 1 mps 664 mmHg 53%
    08:00 +19°C° 0 mm 1 mps 665 mmHg 49%
    09:00 +20°C° 0 mm 1 mps 665 mmHg 46%
    10:00 +20°C° 0 mm 2 mps 665 mmHg 43%
    11:00 +21°C° 0 mm 2 mps 665 mmHg 40%
    12:00 +23°C° 0 mm 2 mps 665 mmHg 38%
    13:00 +24°C° 0 mm 3 mps 665 mmHg 37%
    14:00 +24°C° 0 mm 3 mps 665 mmHg 35%
    15:00 +23°C° 0 mm 2 mps 665 mmHg 38%
    16:00 +23°C° 0 mm 2 mps 664 mmHg 40%
    17:00 +21°C° 0 mm 2 mps 664 mmHg 42%
    18:00 +21°C° 0 mm 1 mps 664 mmHg 45%
    19:00 +20°C° 0 mm 1 mps 664 mmHg 49%
    20:00 +18°C° 0 mm 1 mps 664 mmHg 53%
    21:00 +18°C° 0 mm 1 mps 664 mmHg 53%
    22:00 +16°C° 0 mm 1 mps 664 mmHg 54%
    23:00 +16°C° 0 mm 1 mps 663 mmHg 54%
    Show more